THOR ABLESTAR DEB, 470

Orbit data source: Space-Track

THOR ABLESTAR DEB, 470 is space debris in LEO originally from a launch on Thu, 29 Jun 1961 UTC launched from the Air Force Eastern Test Range (AFETR). Debris objects in space refer to the collection of defunct objects orbiting the Earth. Examples of debris include non-operational satellites, rocket bodies, and fragments generated from explosions, collisions, or faulty payload assembly.

Loading next visibility...
Identifier
470, 1961-015FG
Orbit
LEO
Country
Flag of USUS
Related business
Manufacturer
Unknown
Mission
Spacecraft
Bus & Motor
Unknown
Mass
Unknown
Launch date (UTC)
1961-06-29 (65 years ago)
Launch vehicle
Unknown
Launch site
Air Force Eastern Test Range (AFETR)
Object type
Payload
Rocket body
Debris
Shape & HBR
Unknown shape, 0.2 m
Radar Cross Section
Medium (>0.1 m² and <1 m²)

Expand to show TLE details & history
Last TLE update: 12 hours ago

TLE from 12 hours ago
0 THOR ABLESTAR DEB
1 00470U 61015FG  26266.52290614  .00000009  00000-0  52425-4 0  9996
2 00470  66.2321  19.9429 0074532 266.7836  92.4719 14.09431813326250
Epoch: 2026-09-23T12:32Z
TLE epoch observation values (Epoch: 2026-09-23T12:32:59.090Z)
Latitude
0.00002°
Longitude
-170.67611°
Altitude
866.096 km
Speed
7.418 km/s
True Right ascension
01h 19m 46s
True Declination
0° 00' 00"
Sunlit
Object was in full shadow at epoch
Visualization orbit readout
Latitude
Unknown
Longitude
Unknown
Altitude
Unknown
Speed
Unknown
Apparent Right ascension
Unknown
Apparent Declination
Unknown
Sunlit
N/A
Visualization observer readout
Local Sidereal Time
18:13:46
Azimuth
Unknown
Elevation
Unknown
Doppler factor
Unknown
Orbital elements
Apogee altitude
913.707 km
Perigee altitude
805.816 km
Semi-major axis
7,237.899 km
Eccentricity
0.00745
Inclination
66.2321°
RAAN
19.9429°
Arg. of periapsis
266.7836°
True anomaly
93.3248°
Mean anomaly
92.4719°
Eccentric anomaly
92.89839°
Mean motion
3.52472 °/min
Orbital period
102.14 mins
BSTAR
0.000052425
Loading maneuver chart data...
Computing Atmospheric mass density...

Documentation

Showing up to 5 results
|